Regional Weather Roundup
Issued by NWS Green Bay, WI

Home | Current Version | Previous Version | Text Only | Print | Product List | Glossary On
Versions: 1 2 3 4 5 6 7 8 9 10 11 12 13 14 15 16 17 18 19 20 21 22 23 24 25 26 27 28 29 30 31 32 33 34 35 36 37 38 39 40 41 42 43 44 45 46 47 48 49 50
284
ASUS43 KGRB 241711
RWRGRB

NORTH-CENTRAL AND NORTHEAST WISCONSIN REGIONAL WEATHER ROUNDUP
NATIONAL WEATHER SERVICE GREEN BAY WI
1200 PM CDT MON JUL 24 2017

WIZ005-009-010>012-018-019-241800-
NORTH CENTRAL WISCONSIN

CITY           SKY/WX    TMP DP  RH WIND       PRES   REMARKS
IRONWOOD       FAIR      71  52  50 SE9       30.10F
MANITOWISH WTR FAIR      69  51  51 E8        30.11F
ARBOR VITAE    FAIR      72  53  52 E5        30.11F
EAGLE RIVER    FAIR      70  50  48 NE7       30.11F
LAND O LAKES   FAIR      71  49  44 SE5       30.13F
RHINELANDER    FAIR      69  52  54 SE7       30.13S
PHILLIPS       FAIR      68  53  57 SE6       30.10F
ANTIGO         FAIR      69  52  55 E6        30.12S
TOMAHAWK         N/A     67  53  61 CALM      30.12F
MERRILL        FAIR      69  54  58 SE6       30.11
$$

WIZ013-073-241800-
NORTHEAST WISCONSIN

CITY           SKY/WX    TMP DP  RH WIND       PRES   REMARKS
IRON MOUNTAIN  FAIR      72  50  45 NW5       30.10S
MARINETTE      FAIR      70  55  59 E9        30.10R
OCONTO         FAIR      69  54  57 SE7       30.09S
$$

WIZ017-030-035>037-045-241800-
CENTRAL WISCONSIN

CITY           SKY/WX    TMP DP  RH WIND       PRES   REMARKS
MEDFORD        FAIR      67  54  61 SE7       30.10F
WAUSAU         FAIR      71  54  54 MISG      30.09S
MOSINEE        MOSUNNY   70  55  60 E8        30.11F
MARSHFIELD     PTSUNNY   69  55  60 VRB6      30.09S
WISC RAPIDS    PTSUNNY   72  56  57 NE3       30.11S
STEVENS POINT  FAIR      68  54  60 SE9       30.10F
WAUPACA        FAIR      74  55  49 NE6       30.10S
SHAWANO        FAIR      72  54  52 E7        30.10S
CLINTONVILLE   FAIR     N/A N/A N/A NE7       30.10S
WAUTOMA        PTSUNNY   70  57  63 NE6       30.10S
$$

WIZ038-039-048-051-241800-
FOX VALLEY

CITY           SKY/WX    TMP DP  RH WIND       PRES   REMARKS
NWS GREEN BAY  FAIR      68  59  73 NE9G17    30.10R
APPLETON       PTSUNNY   70  52  52 E12G18    30.09R
OSHKOSH        FAIR      70  58  65 NE7       30.08S
FOND DU LAC    PTSUNNY   72  56  57 NE8       30.08S
$$

WIZ022-050-052-241800-
EAST CENTRAL WISCONSIN

CITY           SKY/WX    TMP DP  RH WIND       PRES   REMARKS
EPHRAIM        FAIR      66  56  69 N10       30.08F
WASHINGTON ISL CLOUDY    66  56  68 N10       30.08S
STURGEON BAY     N/A     68  58  70 N10       30.09S
MANITOWOC      FAIR      68  55  63 NE10      30.09R
SHEBOYGAN      FAIR      68  59  73 NE17      30.08F
$$

LMZ563-521-522-541>543-241800-
LAKESHORE

STATION/POSITION TIME  TEMP    WIND        PRES    VSBY  WAVE
                       AIR SEA DIR/SP/G                  HT/PER
                 (UTC) (F)     (DEG/KT/KT) (MB)    (MI)  (FT/S)
SHEBOYGAN LKSHOR 1700   64      10/ 16/ 18 1018.6R
KEWAUNEE LKSHORE 1648   67      40/  9/ 14 1018.2R
NORTHPORT PIER   1640   66     340/ 11/ 12 1018.6S
N MID LAKE BUOY  1550   63 66   20/ 16/ 19 1018.6          3/ 4
S GREEN BAY BUOY 1700   65 72   50/ 10/ 12 1018.9
SISTER BAY LKSHO 1702   71      10/ 10/ 15   N/A
CHAMBERS ISLAND  1640   66      20/  8/  9 1018.3S
MENOMINEE LKSHOR 1648   67      50/  9/ 11 1018.8R
$$




USA.gov is the U.S. government's official web portal to all federal, state and local government web resources and services.